RH
56 34 26 17 18 21 19 18 20 21 32 71 70 63 60 80 74 67 76 79 74 77 68 71 90 89 87 86 84 81 79 76 76 80 80 77 75 74 73 72 73 77 73 72 70 74 74 66 70
38 26 21 19 17 18 13 18 20 39 48 60 64 64 62 67 74 88 85 81 82 77 70 67 90 87 86 84 82 80 76 77 79 80 78 76 75 73 72 71 73 77 76 71 71 76 70 70 76
26 17 20 20 20 15 15 14 31 53 59 57 68 76 88 83 77 77 89 80 86 78 70 71 89 86 84 82 79 78 78 79 79 78 77 76 74 72 72 71 70 71 73 72 74 70 70 76 82
18 15 15 18 19 15 14 15 62 55 50 51 59 75 79 86 90 84 78 76 83 79 80 87 89 86 82 80 79 79 80 80 79 76 76 75 74 72 72 72 70 69 69 64 64 64 70 79 80
18 18 20 18 15 14 18 55 60 57 56 56 58 77 75 91 96 91 92 82 87 97 85 87 90 86 82 81 80 81 81 81 79 77 76 75 74 75 73 73 72 70 69 69 68 69 74 77 77
21 18 21 18 18 14 37 59 58 57 58 60 62 71 86 91 91 96 94 95 92 95 97 94 89 91 88 83 84 84 83 82 80 78 78 78 78 79 77 74 74 75 74 73 72 73 76 79 76
23 21 21 19 18 16 30 59 62 57 56 50 57 71 84 93 96 92 93 92 97 92 92 96 96 92 90 82 90 87 86 85 83 83 83 84 83 80 77 76 76 75 75 75 76 78 77 74 72
21 19 20 18 17 16 44 61 55 58 56 56 68 68 83 95 95 92 87 86 87 92 95 94 95 90 88 86 92 91 91 90 88 88 88 88 86 84 82 78 78 78 78 77 74 78 74 68 68
18 21 22 20 18 18 54 57 59 56 67 78 75 72 83 96 86 92 95 91 91 90 86 89 86 83 82 88 86 88 89 90 88 85 89 81 58 56 52 76 80 77 76 73 70 68 70 69 64
18 23 20 16 14 19 53 52 52 55 76 80 82 92 94 92 87 94 95 95 94 92 88 85 80 71 62 59 78 94 84 80 78 77 75 59 65 59 55 71 78 76 73 71 64 59 55 44 30
20 20 18 15 14 19 38 56 48 52 65 69 81 92 96 93 88 93 95 88 94 85 71 61 63 68 75 78 83 75 72 70 74 79 70 70 69 67 68 60 53 52 53 35 38 36 34 40 34
20 17 16 13 14 43 39 47 51 53 56 65 69 84 91 91 90 86 90 90 82 78 63 81 86 89 84 72 74 74 68 66 66 76 75 76 71 75 68 55 52 53 45 47 41 40 46 44 43
17 16 20 20 31 42 43 48 54 74 81 71 78 85 86 86 85 79 78 79 84 66 66 67 76 82 78 76 72 72 75 66 80 82 81 79 75 78 62 58 50 47 42 43 41 39 39 41 40
21 21 32 42 43 43 44 53 52 78 78 79 81 80 81 79 81 75 76 78 69 55 59 65 68 76 74 73 75 75 77 78 77 75 79 81 74 74 60 54 46 45 40 40 38 37 36 37 38
24 26 31 42 42 43 40 43 42 73 77 81 81 80 79 77 77 68 64 69 62 55 57 66 70 77 77 75 72 70 69 73 74 71 80 81 76 75 67 57 50 44 46 49 46 45 42 37 34
25 20 27 33 39 42 36 38 61 75 77 76 81 81 79 77 75 73 68 65 60 56 63 68 70 79 79 76 72 70 71 73 76 78 84 86 81 77 72 60 52 51 48 50 51 42 41 40 38
31 25 25 30 37 39 34 32 57 80 80 74 76 73 74 73 71 70 70 69 65 63 65 73 79 80 79 78 78 82 83 85 82 83 84 82 79 75 68 56 54 56 49 49 44 47 44 43 41
34 34 30 25 26 37 38 35 62 82 82 74 65 72 71 73 68 67 70 66 64 63 68 72 78 80 81 84 85 85 86 86 84 78 80 76 70 67 61 52 67 51 50 50 48 51 51 48 46
32 32 30 25 22 36 37 34 43 81 79 75 71 70 69 65 59 64 66 66 67 70 74 76 81 82 81 81 89 90 92 88 84 80 76 73 62 60 59 55 62 52 48 51 55 54 57 52 53
33 32 30 27 26 28 29 26 30 72 78 67 64 64 59 60 64 67 66 68 68 70 75 78 77 79 74 68 71 71 76 84 78 80 75 68 63 57 56 62 52 51 51 58 58 57 55 53 53
32 33 34 32 30 24 24 23 32 50 59 61 56 55 55 58 63 67 70 71 71 73 79 75 74 75 73 70 71 75 79 78 79 79 77 66 61 55 58 59 53 56 54 54 59 58 56 50 51
34 30 33 34 34 31 27 32 28 30 53 59 55 58 57 60 61 62 69 70 71 70 74 72 73 74 77 79 73 77 71 76 78 81 74 67 68 66 56 54 56 60 56 60 60 53 52 48 42
33 34 34 35 37 37 36 32 27 29 30 44 53 56 60 56 58 62 64 64 65 68 79 78 76 74 76 77 74 81 80 79 82 82 75 74 66 60 53 56 60 62 58 62 58 60 55 49 47
34 39 39 42 42 45 36 33 29 25 26 27 33 46 58 55 57 57 59 62 62 70 78 80 79 76 77 79 79 81 82 84 86 84 84 74 65 63 62 56 60 62 60 58 61 67 68 69 53
33 36 46 56 56 48 42 41 32 28 26 26 27 33 49 54 54 54 60 63 63 70 74 77 75 75 79 82 83 85 86 82 78 77 82 73 72 66 63 62 65 57 56 59 70 74 80 77 73
37 37 53 45 50 41 42 43 24 29 26 33 34 34 34 53 53 50 52 56 59 67 70 74 72 73 78 83 84 90 87 80 76 79 83 80 74 62 64 64 60 57 61 73 88 89 83 78 67
42 42 38 59 69 65 42 33 22 26 27 32 36 34 36 41 50 48 48 54 58 64 70 76 71 72 76 83 85 92 92 87 85 87 86 72 67 62 71 67 59 64 75 89 88 78 76 75 68
36 36 46 51 55 55 39 37 28 26 29 32 31 37 37 43 46 46 47 54 57 64 68 76 72 72 73 79 85 90 90 84 83 83 75 72 67 66 71 66 66 84 92 76 68 72 74 75 62
42 42 45 40 47 48 50 35 34 26 27 34 35 36 41 42 48 48 47 52 59 67 71 75 73 70 74 78 84 87 89 86 85 79 76 72 80 79 68 76 87 86 79 75 77 77 74 65 60
36 40 42 57 49 59 59 43 29 30 27 32 32 35 40 48 46 50 53 63 68 71 72 74 75 74 77 83 87 91 91 89 87 88 84 87 84 79 76 82 88 81 85 79 79 72 58 60 61
Wind_Speed
4 4 2 2 3 1 3 4 2 4 3 1 3 2 3 6 4 3 4 5 15 19 21 21 20 20 20 21 22 23 23 23 24 23 22 22 20 19 19 19 17 19 21 22 24 23 22 21 21
4 2 3 2 3 4 4 2 5 3 4 3 6 4 6 4 3 2 3 8 15 18 19 21 20 21 21 21 23 23 23 23 24 23 22 21 20 20 19 19 18 20 22 25 25 23 22 20 19
3 4 0 2 1 4 2 4 1 2 2 1 6 5 5 6 4 5 4 14 13 19 18 19 21 20 22 23 24 24 24 24 22 23 23 22 20 20 19 19 19 20 21 25 24 23 22 19 17
1 2 3 1 3 4 5 2 1 3 2 3 6 6 3 2 8 7 3 17 12 16 16 19 20 23 24 25 25 24 24 23 23 21 23 22 20 20 18 18 19 20 21 23 23 22 20 16 15
3 2 1 1 4 5 4 4 1 4 2 0 6 6 5 2 7 10 10 8 11 9 12 15 20 21 22 25 26 26 23 23 22 21 22 21 19 18 17 18 18 20 21 22 21 20 17 16 14
2 1 1 2 5 4 2 2 2 1 2 3 5 7 4 3 9 8 10 11 12 12 12 10 15 18 15 20 17 23 21 22 19 20 20 19 17 17 17 16 17 18 19 19 18 18 16 14 14
2 2 2 3 5 4 2 5 2 4 3 1 4 6 5 8 9 11 12 13 13 15 23 21 17 28 24 12 8 16 20 17 17 17 18 15 15 15 16 16 16 16 17 17 16 16 16 16 15
3 1 1 3 2 5 1 2 4 4 2 1 1 5 6 6 12 13 14 16 16 15 17 19 25 19 14 6 5 13 17 15 14 17 16 14 14 13 13 15 16 17 17 16 18 17 18 17 16
3 1 2 4 3 4 2 4 2 3 3 1 3 1 9 13 15 16 13 14 14 12 15 16 20 20 19 10 8 10 13 15 14 16 14 11 9 12 12 13 15 16 17 17 18 18 19 17 15
3 2 6 6 4 5 4 2 4 3 3 1 1 8 11 12 13 14 9 12 12 13 12 12 15 14 14 9 8 4 7 6 8 9 10 9 9 9 10 12 15 17 17 17 18 18 16 10 6
4 5 3 8 12 4 1 2 4 4 4 5 7 11 9 12 11 11 9 12 10 14 14 15 15 14 13 11 8 6 6 7 7 9 8 8 7 7 6 7 6 7 10 8 10 10 7 8 7
3 9 8 5 4 5 4 5 5 4 3 5 12 14 11 12 11 11 11 10 14 14 18 9 5 7 8 9 8 9 8 8 7 7 10 8 6 6 6 5 6 6 5 9 7 6 9 9 10
4 5 5 6 4 3 6 2 4 4 1 9 15 14 12 11 12 10 10 9 8 14 11 10 7 8 9 9 7 7 7 7 7 7 7 6 7 7 6 7 6 6 7 7 7 7 7 8 9
4 5 5 2 3 3 4 3 1 3 7 10 12 12 8 12 14 14 13 13 15 15 14 10 9 8 8 7 7 6 6 7 6 5 6 7 6 7 8 7 7 7 6 6 7 6 7 6 6
3 6 2 3 2 2 6 0 2 8 9 10 11 10 12 12 13 15 16 14 15 14 12 9 8 5 5 6 6 5 6 6 5 6 7 7 8 9 9 7 7 7 6 9 7 7 6 5 5
1 2 3 1 6 3 3 4 4 9 10 10 9 10 10 14 16 15 16 15 14 14 13 10 8 8 8 8 6 5 5 5 5 5 6 9 9 10 9 8 7 7 7 7 5 6 6 4 4
3 2 2 2 3 4 4 3 6 11 10 9 10 8 8 10 13 14 16 17 18 15 14 13 11 9 8 6 5 5 6 5 5 4 5 8 9 10 10 8 8 8 6 6 6 4 4 4 3
3 2 2 2 2 3 4 8 7 13 13 12 9 8 9 11 15 15 16 14 15 15 12 11 9 9 8 5 5 4 5 5 5 5 5 8 8 12 10 8 8 8 7 6 5 5 4 3 2
3 2 2 1 2 4 6 8 8 14 12 13 12 12 12 14 11 13 16 15 15 15 14 13 12 11 9 7 7 5 7 6 5 4 6 8 10 11 10 8 8 8 7 7 7 5 5 3 1
4 1 2 3 2 4 1 8 4 16 19 18 17 15 16 13 11 12 16 16 18 18 18 16 15 14 13 10 8 5 6 5 5 6 7 8 9 11 10 9 9 8 7 8 7 5 4 2 1
4 5 4 1 1 2 3 4 1 7 12 14 16 16 15 15 15 15 16 18 17 17 17 17 16 15 14 12 8 4 6 3 4 6 7 8 10 11 10 9 9 8 7 7 7 6 5 4 3
3 5 5 2 2 2 3 3 4 4 11 13 17 16 18 18 17 15 17 18 18 18 13 14 14 14 13 13 11 12 9 9 7 7 6 7 8 7 9 10 9 9 6 7 6 5 5 4 3
5 2 2 2 3 1 2 3 3 0 7 16 19 19 19 19 19 20 20 18 16 15 14 14 14 15 14 15 14 11 11 7 5 5 9 8 8 9 10 10 10 9 7 8 8 6 5 4 4
4 3 5 4 2 1 1 3 3 5 6 3 10 18 19 19 19 20 17 16 15 13 14 15 16 15 15 15 15 14 12 9 7 8 7 8 8 7 9 11 10 9 9 10 8 6 4 4 4
2 3 0 1 1 3 3 2 8 3 8 8 9 11 17 18 17 17 18 17 16 17 17 15 17 17 16 16 15 14 13 14 12 11 8 11 9 7 11 12 11 10 10 9 5 5 3 4 4
4 3 4 3 3 1 0 4 3 3 8 7 7 9 8 16 17 18 19 18 18 18 18 17 18 17 16 16 17 12 13 10 9 8 6 7 9 10 12 11 12 14 11 9 6 4 5 5 5
4 2 1 7 2 0 2 5 8 3 4 3 6 5 4 8 13 16 15 16 15 16 19 19 17 15 16 17 14 12 11 11 9 9 8 10 10 9 11 12 14 12 10 9 9 7 7 5 5
1 8 3 1 4 3 2 3 4 4 3 4 3 5 7 3 8 10 12 14 14 14 13 14 15 15 15 15 13 11 12 14 10 9 11 10 10 12 13 14 14 11 7 7 8 5 3 5 5
4 2 3 4 1 3 2 3 6 5 2 4 3 4 5 6 5 8 10 10 11 11 12 13 14 15 14 14 13 12 12 12 9 10 11 11 12 14 13 10 6 4 5 6 5 4 6 9 6
2 6 6 4 4 0 1 6 3 6 5 6 8 4 4 4 5 5 7 9 10 11 12 13 12 13 12 12 12 10 10 9 10 8 10 11 12 13 12 11 7 8 6 7 7 11 8 9 9
Wind_Direction
118 109 88 52 218 272 240 248 302 286 261 4 36 243 1 61 346 349 351 217 153 153 153 151 144 140 135 129 124 121 121 123 123 118 115 116 117 116 112 106 102 105 102 108 117 112 101 96 92
119 110 73 96 219 213 227 254 200 280 282 313 70 325 56 6 78 131 113 189 158 148 153 152 144 141 136 132 129 128 129 127 124 117 117 115 116 114 110 106 104 103 103 106 110 107 102 98 93
102 38 244 92 121 236 266 228 241 288 318 283 99 26 78 287 247 164 174 180 157 150 152 151 142 142 140 139 138 135 131 126 122 120 120 119 117 113 109 107 105 103 105 107 107 106 102 98 93
83 62 88 324 261 248 232 249 228 198 285 67 105 80 147 330 327 360 155 166 156 152 147 144 146 146 148 146 138 133 128 126 120 124 122 119 119 114 112 110 107 105 106 109 108 106 102 96 93
48 66 69 331 264 262 248 285 200 170 155 200 158 141 117 46 52 61 68 78 106 82 144 147 155 151 151 145 138 128 127 120 121 129 119 120 121 114 112 111 109 107 103 105 109 109 107 103 98
90 63 85 271 257 262 264 242 110 96 174 150 111 122 110 125 103 82 76 74 80 75 70 40 152 127 102 108 113 118 117 116 129 122 123 120 119 112 110 113 111 105 104 104 105 104 101 103 99
125 132 206 261 275 294 262 159 189 166 234 297 128 129 126 117 98 98 88 94 95 85 96 92 48 78 77 4 49 103 107 116 116 116 110 110 107 110 115 115 113 115 110 106 107 102 98 97 98
113 123 174 244 294 283 230 145 165 180 187 156 336 178 164 132 123 103 95 94 101 112 114 115 120 108 115 182 73 72 95 101 110 106 101 102 103 104 103 106 107 112 110 109 102 103 103 95 91
140 72 269 261 237 264 184 202 150 99 135 52 1 137 126 124 120 102 103 101 103 109 115 123 127 129 139 154 128 112 106 104 108 102 105 109 121 118 124 103 110 105 106 104 104 101 91 90 83
133 192 227 213 240 261 177 182 152 185 139 125 82 106 118 125 128 121 122 117 117 115 116 124 130 127 120 114 108 89 105 125 115 120 123 126 123 128 120 112 110 104 104 105 104 94 95 99 96
163 233 221 248 244 262 273 176 158 179 226 191 188 157 134 126 129 120 113 128 126 129 138 143 136 144 143 146 157 154 147 131 127 122 127 120 117 128 120 125 113 115 113 107 98 96 91 95 92
210 247 249 285 233 179 201 135 152 179 313 274 161 162 145 136 130 147 144 146 144 149 152 152 135 138 145 148 156 163 149 144 143 142 138 136 130 135 142 127 128 117 105 104 101 102 101 92 85
216 266 295 285 239 207 129 127 117 15 9 137 141 157 154 138 134 129 127 129 124 155 154 154 146 149 146 146 159 134 136 136 139 140 145 144 145 146 139 141 136 123 121 122 117 105 102 95 85
207 266 283 356 8 115 105 116 196 188 171 144 147 168 156 152 153 139 147 153 160 159 169 180 174 166 145 139 141 140 140 135 151 152 156 157 155 147 151 148 134 126 137 118 111 111 105 92 92
275 301 29 17 100 96 139 351 257 158 186 162 174 172 164 158 158 160 158 166 176 172 177 196 191 162 140 140 144 147 154 146 155 170 183 181 173 165 158 147 145 138 127 117 115 108 98 105 101
348 56 355 224 161 198 219 276 101 167 190 184 195 188 177 170 171 170 176 174 192 184 193 199 196 189 182 168 159 157 157 168 173 179 189 194 180 164 159 152 146 147 135 125 126 115 115 111 91
351 211 162 158 178 139 198 257 138 182 190 214 198 199 180 176 176 174 179 185 184 199 197 197 198 191 185 166 158 164 171 181 181 179 178 182 172 168 162 159 145 154 142 138 137 133 125 118 105
211 232 240 119 201 232 192 243 174 188 197 212 211 201 197 198 192 180 180 184 188 196 205 206 200 194 180 153 155 162 182 185 185 186 190 175 175 171 165 153 150 158 146 142 146 125 88 99 77
159 202 336 261 173 203 237 265 212 192 207 214 222 210 217 217 193 188 184 183 187 194 199 204 195 191 172 164 173 183 190 183 189 187 184 183 181 170 163 161 158 164 158 146 134 119 134 128 49
164 99 313 315 8 216 272 293 214 189 209 211 207 218 223 218 214 199 191 191 195 195 196 195 197 189 191 187 185 180 180 193 189 182 188 195 179 175 174 166 167 160 144 142 159 158 135 114 151
211 169 172 272 256 171 1 293 278 196 221 216 229 226 229 232 222 210 197 199 200 201 196 195 195 191 194 192 167 124 136 124 177 190 193 191 191 182 179 168 162 157 160 165 162 153 149 157 166
260 184 176 110 31 291 344 302 278 223 215 215 226 224 225 215 224 221 207 206 205 210 201 201 194 193 192 183 186 185 196 194 197 189 188 193 188 174 170 169 160 166 164 155 149 152 153 156 174
234 169 64 105 169 160 155 210 273 18 244 228 225 223 224 221 209 216 217 208 205 203 194 197 196 197 193 191 198 195 202 197 160 162 179 189 195 186 172 164 166 162 161 155 147 143 156 185 159
120 92 55 73 95 201 208 210 263 209 228 280 245 226 220 218 212 215 211 209 206 194 188 190 194 199 195 196 197 202 209 193 165 170 176 190 191 186 184 172 172 161 155 154 142 137 174 210 179
128 116 333 105 129 217 124 196 248 237 245 250 265 241 221 213 215 209 204 201 201 197 196 197 201 205 196 193 193 196 202 202 192 186 186 186 184 190 185 175 164 158 146 138 119 122 191 213 185
171 190 164 190 182 280 20 237 239 217 284 287 276 280 250 214 212 212 211 206 204 202 200 200 205 208 198 197 196 192 197 201 201 189 176 193 191 194 173 168 157 151 147 132 136 180 196 185 187
152 180 87 103 25 154 245 276 270 307 322 332 331 328 304 225 222 223 220 213 209 203 204 205 206 209 204 203 196 198 193 205 198 179 192 205 197 172 162 156 154 149 148 161 166 181 191 191 207
228 144 135 49 170 235 245 274 260 324 348 327 1 330 307 279 215 214 213 210 210 210 207 204 208 209 207 204 199 201 203 208 198 181 194 179 167 155 157 158 158 163 159 164 171 197 162 209 215
147 172 66 121 151 202 243 242 214 240 275 304 290 269 272 275 245 215 214 212 207 199 198 203 206 207 209 205 201 207 209 210 193 182 172 169 147 157 159 145 138 156 145 169 178 205 203 221 223
207 175 156 151 193 10 281 262 256 254 272 286 287 272 271 259 254 229 206 201 199 204 203 206 205 210 211 208 203 204 197 183 181 172 159 156 153 156 153 155 151 153 162 171 198 215 217 222 227